GFSMW_925_spd_057.txt.gz
Wind_Speed
26 31 31 30 28 27 26 25 23 22 21 19 18 16 17 14 14 12 8 8 9 7 6 9 5 5 7 3 8 5 1 2 4 6 9 4 3 5 3 3 7 4 4
25 28 31 31 30 29 28 27 25 22 23 20 19 16 15 15 12 11 11 9 9 9 8 7 7 6 3 5 5 5 8 4 4 5 10 4 7 7 3 3 3 3 1
26 25 30 32 32 32 31 29 28 25 24 21 19 15 14 11 12 13 11 12 11 10 8 7 6 7 4 9 7 5 10 3 7 8 5 3 1 8 6 5 4 3 5
24 24 28 33 35 34 32 30 29 27 26 24 22 20 18 17 16 14 15 16 13 11 10 9 7 9 6 7 8 9 11 8 9 5 6 3 5 3 3 6 4 4 4
26 27 29 36 36 35 34 32 31 29 27 28 23 24 21 19 17 16 16 11 15 13 12 11 9 8 7 6 5 4 8 7 10 8 7 3 3 4 4 5 10 6 3
25 26 35 34 35 36 35 34 33 32 30 30 30 24 25 21 19 17 16 15 15 14 13 12 11 10 8 8 8 6 6 8 6 6 5 11 9 9 6 1 5 4 3
24 24 26 32 36 37 37 35 34 34 34 31 30 26 25 27 16 17 17 17 17 17 20 15 12 11 10 9 8 8 5 7 7 7 6 5 4 4 5 5 3 2 1
24 25 27 34 35 37 37 36 37 36 34 34 33 33 28 26 25 20 19 19 17 15 17 16 14 12 12 11 10 9 9 11 9 9 10 7 8 7 6 6 7 5 7
24 26 25 34 36 37 39 40 38 39 38 38 35 33 33 32 27 25 26 19 20 14 14 14 14 15 14 13 12 11 11 6 9 11 10 10 10 7 8 7 7 7 6
24 23 23 32 37 39 40 38 38 39 39 38 37 35 34 33 30 27 24 25 19 20 11 18 17 17 17 16 16 14 13 11 12 11 13 11 12 10 9 9 8 8 9
18 19 22 32 36 35 37 40 39 36 38 39 38 37 36 34 35 28 29 24 22 18 21 17 17 18 19 18 18 18 12 15 14 13 11 12 12 11 10 10 10 11 11
19 21 21 29 32 36 37 39 40 41 41 40 38 39 36 36 35 36 30 27 26 24 22 21 20 19 20 20 20 20 18 17 16 16 16 14 14 15 16 13 12 13 12
22 19 20 20 27 34 35 37 40 41 40 39 40 38 38 38 37 35 33 31 29 27 25 25 23 21 22 22 22 22 21 20 20 19 18 18 17 17 17 16 17 16 16
19 21 19 19 26 30 33 34 37 39 38 39 40 40 40 39 38 35 35 34 32 30 28 27 26 25 24 24 24 23 23 22 22 21 20 20 20 20 19 19 19 18 18
13 20 17 17 18 24 29 33 34 36 39 38 38 41 42 40 37 38 36 35 34 33 31 29 28 27 26 26 27 25 24 23 23 22 22 23 23 23 23 21 21 20 19
6 8 12 14 16 23 25 31 34 34 38 37 40 37 36 38 40 39 38 36 34 33 32 30 29 29 29 28 29 29 26 25 25 24 23 24 22 26 28 29 30 28 24
8 6 8 9 15 25 25 28 34 34 34 35 34 35 36 38 39 38 37 37 36 34 33 32 30 30 32 30 30 32 30 25 26 25 24 23 23 26 26 25 27 29 30
10 10 10 11 14 18 24 28 30 36 34 35 32 36 35 37 37 37 38 37 35 35 33 32 32 31 32 34 34 32 34 30 27 24 25 25 25 22 19 22 23 23 23
10 12 14 16 17 18 21 20 29 31 34 32 37 37 39 36 36 37 37 35 33 33 33 33 32 33 32 33 36 34 29 29 30 29 30 27 25 26 28 28 27 27 26
13 15 18 20 21 24 24 24 27 30 35 37 40 38 37 36 37 37 35 36 35 35 34 32 32 32 32 34 34 36 31 28 28 29 30 33 35 32 31 31 29 29 28
15 20 22 22 23 25 27 28 29 31 38 34 32 33 36 36 34 32 32 33 33 31 30 30 30 30 32 31 36 39 35 30 28 28 27 29 30 33 35 38 34 31 28
21 22 23 18 20 23 25 26 26 32 29 31 32 33 33 34 33 31 30 30 28 27 25 27 26 29 29 32 33 34 37 34 30 28 26 25 27 27 27 28 30 30 29
22 23 21 12 11 9 16 21 27 25 27 28 30 30 30 31 29 32 29 29 27 28 28 26 27 27 27 27 31 32 34 36 36 30 25 28 25 16 17 20 21 21 19
20 24 21 21 20 23 21 4 14 19 22 25 27 28 30 30 29 31 29 29 29 28 26 27 26 25 26 26 25 31 36 35 35 38 31 28 21 18 18 15 17 20 18
18 22 20 20 23 26 28 28 12 17 22 24 27 28 29 31 30 28 29 29 25 27 27 25 25 24 24 26 27 25 23 24 29 24 24 25 25 25 24 22 20 18 18
18 21 23 23 25 26 28 32 27 9 16 21 24 29 30 31 30 28 16 19 19 19 17 11 9 6 6 8 18 27 20 18 21 23 22 22 22 23 21 20 17 18 18

GFSMW_925_spd_060.txt.gz
Wind_Speed
21 29 29 29 30 30 29 24 22 28 24 18 16 15 15 10 9 14 7 11 9 6 4 4 6 2 3 8 4 5 2 5 8 5 11 4 4 5 11 11 10 4 14
24 26 28 31 28 30 31 25 23 29 26 21 19 16 19 19 16 16 16 12 10 6 6 7 5 6 7 7 2 4 5 4 1 4 11 1 6 12 5 9 6 5 8
25 23 26 30 30 32 33 30 27 29 28 20 20 16 15 17 20 24 16 12 11 6 8 6 6 5 5 9 7 6 4 7 4 1 2 2 0 3 6 3 7 3 2
24 23 25 28 31 33 33 33 28 28 31 25 22 17 13 12 16 20 17 18 15 12 9 8 5 5 4 5 5 5 4 4 3 4 4 2 2 1 2 9 14 5 7
25 25 26 32 34 35 35 34 33 28 28 31 23 23 18 17 16 18 22 22 18 14 14 12 10 8 7 7 8 6 3 6 13 5 8 5 7 7 6 2 7 8 10
25 25 33 34 32 34 36 35 36 34 31 36 28 25 26 18 14 16 25 22 21 18 14 14 12 10 8 8 8 6 7 4 2 2 5 8 4 3 8 5 4 14 10
24 24 25 28 33 35 38 38 39 36 35 34 35 25 29 29 20 15 21 20 21 23 22 18 16 14 12 8 9 9 5 6 4 6 6 7 4 6 7 9 7 1 11
24 24 26 31 36 37 39 39 41 39 39 33 36 32 28 31 27 16 19 15 20 24 26 25 18 14 13 11 11 9 10 8 8 7 9 9 7 3 4 8 10 5 7
7 23 23 32 35 36 40 42 42 41 40 42 36 36 31 29 25 21 21 20 20 10 25 26 21 16 14 13 13 10 13 9 11 11 10 12 7 9 6 8 6 7 3
17 22 22 30 34 38 37 38 38 41 40 39 36 36 40 34 30 31 21 24 21 20 20 23 21 20 17 16 15 14 13 12 12 12 14 12 12 13 8 9 9 9 10
13 14 14 28 35 35 36 38 38 38 39 39 39 36 35 36 38 29 34 26 29 19 23 16 19 20 20 18 18 18 15 18 15 16 11 18 12 16 12 8 12 12 11
22 16 22 43 34 36 37 38 39 38 41 40 37 38 36 37 35 37 30 32 30 30 21 23 18 20 20 21 21 21 19 16 19 17 16 13 13 13 15 17 14 11 10
26 28 27 25 31 36 36 37 40 41 37 37 38 36 37 37 38 37 36 34 35 28 26 22 25 22 22 23 23 24 23 21 19 20 20 20 19 19 16 16 15 15 16
26 24 23 24 30 38 37 37 38 39 39 40 39 39 41 40 39 38 41 34 36 36 31 29 26 27 26 26 25 25 24 23 23 21 24 21 21 22 21 21 22 20 20
7 14 12 8 19 30 36 37 34 39 39 38 41 41 40 39 37 37 37 41 37 34 34 32 30 29 28 28 28 28 26 26 25 25 24 24 24 23 23 22 20 19 21
1 7 7 9 13 16 31 33 35 36 38 38 40 37 37 37 37 38 36 37 38 37 35 34 32 31 30 31 30 30 28 26 27 26 27 24 24 28 29 28 26 25 26
10 13 14 9 12 15 25 32 34 34 36 35 35 37 37 39 41 37 39 35 38 36 37 35 34 34 34 33 32 33 33 30 28 28 27 26 25 28 28 29 30 32 32
16 13 13 17 6 23 48 31 31 32 31 35 33 36 38 39 39 39 37 38 35 37 36 36 36 35 35 36 36 34 37 33 30 30 30 29 29 28 23 28 30 29 30
26 18 18 18 20 22 22 17 26 37 35 29 36 35 39 36 38 39 40 37 36 35 36 36 36 37 35 35 38 38 34 37 35 35 32 27 30 32 31 31 30 27 24
25 28 27 24 22 23 25 20 21 26 35 37 33 36 35 37 37 38 38 37 37 37 36 36 37 36 35 36 37 39 38 30 30 31 34 35 39 36 26 28 30 28 29
23 27 26 22 26 26 23 24 24 24 30 35 33 31 34 38 35 35 35 35 35 33 34 33 33 33 36 34 38 39 40 32 28 29 28 31 35 36 37 39 39 34 32
21 25 23 20 27 20 16 25 26 31 24 30 33 33 35 32 34 35 34 34 33 33 31 32 29 31 32 35 34 36 40 37 30 28 27 30 30 31 31 32 34 34 34
18 22 20 19 25 29 25 20 27 29 27 20 34 33 32 34 33 35 33 32 33 31 31 27 28 27 29 31 34 35 36 38 39 34 27 28 26 20 17 22 32 31 31
15 21 22 21 23 29 26 22 22 17 26 25 28 32 32 32 33 29 33 31 31 31 28 29 25 27 26 26 30 36 37 37 39 40 36 34 27 20 14 12 14 19 21
16 15 19 20 24 27 23 23 27 21 23 26 26 28 28 32 31 33 32 33 33 33 32 28 29 23 25 29 28 32 38 40 40 37 32 26 27 25 20 18 17 18 20
16 16 18 21 23 26 26 28 28 25 18 14 20 24 25 28 29 31 21 31 31 32 33 33 28 21 18 19 26 34 33 32 30 29 22 20 21 21 21 23 23 22 20

GFSMW_925_spd_063.txt.gz
Wind_Speed
18 26 30 33 38 39 35 30 33 27 23 20 19 14 13 14 15 20 14 13 9 9 7 9 8 5 7 9 5 6 5 7 20 10 7 8 9 11 13 12 13 13 11
17 23 28 33 36 38 37 33 33 32 29 25 22 17 16 14 14 18 8 13 13 10 9 10 8 5 9 6 5 3 4 5 7 5 4 2 2 6 7 16 14 12 10
18 20 22 31 32 35 40 37 34 36 32 27 25 16 19 18 16 17 16 16 16 8 9 8 7 7 8 7 4 5 4 4 1 5 3 2 2 1 5 15 10 6 11
19 20 20 26 34 35 40 39 33 38 34 28 29 21 18 18 19 23 20 20 17 11 10 10 10 10 7 11 7 4 2 3 2 2 4 3 3 2 1 6 8 8 7
23 23 23 31 32 38 37 41 36 37 36 31 28 25 19 20 25 25 27 24 19 14 12 11 11 9 8 11 9 5 8 3 3 5 4 7 7 4 1 1 7 13 12
24 23 33 29 28 36 36 39 40 41 39 36 30 28 24 20 16 31 27 24 21 19 17 15 11 10 9 9 9 8 7 6 4 4 2 4 2 1 6 4 6 10 10
21 21 22 26 28 35 38 39 40 40 42 40 35 31 28 26 18 26 26 29 26 24 22 20 17 14 13 10 10 10 7 9 9 5 2 2 4 4 3 2 4 1 6
4 20 23 31 32 38 40 40 41 39 41 43 43 35 33 31 28 16 26 31 31 29 28 25 21 17 16 13 11 9 11 9 10 9 6 6 2 5 6 5 5 3 5
7 5 25 34 36 32 39 41 40 40 40 43 45 42 35 36 34 27 21 29 29 27 28 29 25 20 19 15 14 12 10 10 9 9 10 9 7 5 7 6 2 2 1
12 8 13 20 33 38 38 38 39 40 39 39 41 43 43 40 38 32 28 19 26 20 20 33 29 24 20 18 17 14 12 13 11 13 10 9 14 13 7 8 6 6 6
24 16 14 15 14 22 32 39 37 39 38 41 37 38 39 42 40 35 33 25 23 19 16 31 30 26 24 20 21 18 15 18 15 13 13 14 14 12 14 11 7 10 11
22 20 21 15 12 22 31 39 39 42 43 41 39 38 39 41 41 41 36 34 29 26 19 26 29 28 27 24 22 22 20 19 19 19 20 17 15 18 14 15 14 13 9
24 20 13 12 29 18 19 37 41 41 41 40 40 37 37 40 41 42 42 40 36 32 31 26 31 30 28 25 25 24 23 22 20 21 21 20 19 17 17 16 15 14 13
16 21 20 22 38 43 29 38 39 40 41 41 40 40 39 38 41 39 42 41 38 37 36 33 29 30 29 28 26 26 26 25 25 21 23 21 21 22 21 21 21 20 21
7 12 19 13 6 26 14 30 39 41 40 41 41 40 39 37 35 37 37 44 39 42 38 36 33 30 31 30 29 28 28 29 28 26 27 23 25 25 24 24 23 22 22
19 21 13 17 13 21 31 15 36 41 43 39 40 39 37 38 38 36 37 40 42 38 42 41 38 35 32 33 33 32 32 30 31 31 29 29 26 27 27 26 25 25 23
8 7 19 15 8 10 21 17 25 29 40 42 39 41 40 39 40 37 36 36 41 38 37 40 38 38 38 35 35 33 33 34 33 32 32 30 30 30 28 26 26 29 31
12 13 13 18 12 3 19 22 26 10 14 28 38 41 41 41 38 38 37 36 35 38 38 36 36 36 38 38 37 36 35 36 35 35 34 34 33 30 27 27 27 30 33
13 16 20 24 25 29 16 15 14 24 24 25 34 38 42 39 39 41 39 39 35 36 38 36 37 37 37 37 40 38 39 41 39 39 37 37 35 33 31 30 31 30 26
24 25 24 21 19 24 26 18 19 20 29 30 38 38 40 40 41 40 41 37 39 37 33 36 36 37 38 37 38 41 42 40 37 39 41 39 37 34 31 34 35 35 34
26 24 21 19 20 20 28 15 31 26 29 26 29 34 41 43 41 40 38 39 36 33 35 34 35 34 36 38 40 39 43 37 33 33 34 41 43 42 40 38 37 36 37
22 22 22 23 25 27 24 16 11 20 18 23 21 30 35 38 36 39 38 36 36 34 33 33 30 34 35 38 39 41 43 44 35 30 36 35 37 36 34 34 36 36 38
18 19 21 21 22 27 28 26 29 31 30 20 22 34 34 39 36 36 36 34 34 33 31 30 31 31 32 34 39 42 43 43 45 37 35 31 31 33 34 36 37 38 37
15 15 14 14 20 24 27 28 28 31 29 25 21 26 34 33 34 34 36 35 35 33 31 30 30 30 30 30 32 39 41 41 43 46 41 36 31 25 21 19 19 21 24
17 15 9 9 14 23 25 28 29 30 28 25 21 24 31 35 32 34 34 36 37 37 34 33 31 28 28 36 34 36 41 44 44 44 36 29 34 34 33 30 24 19 19
10 14 14 14 17 20 24 26 30 28 27 24 21 18 25 28 31 30 29 34 34 36 40 36 32 32 32 31 36 34 38 39 40 38 28 29 30 30 29 28 29 27 25

GFSMW_925_spd_069.txt.gz
Wind_Speed
19 24 30 32 33 33 37 38 35 32 30 23 21 15 14 19 22 19 14 14 12 9 11 14 10 9 10 9 9 6 7 7 7 7 9 8 10 13 14 12 10 10 9
12 19 28 30 32 38 40 40 37 36 34 27 21 18 16 18 20 20 17 13 12 12 12 13 11 10 11 12 11 8 8 8 11 5 2 2 4 11 15 15 15 14 13
15 15 24 30 31 32 35 42 41 37 33 28 22 17 17 18 21 20 18 15 13 13 13 12 11 7 10 10 9 6 7 7 13 8 2 1 2 3 3 10 17 17 15
15 14 25 30 34 36 41 44 42 39 34 31 27 22 20 18 16 19 20 16 14 13 13 12 12 9 12 10 8 7 7 6 8 5 4 2 1 1 3 3 6 9 14
17 19 24 35 39 39 39 43 43 40 36 34 31 27 22 20 18 21 21 16 17 14 14 14 14 12 11 12 10 9 8 6 6 3 1 1 1 2 1 2 3 7 10
14 15 29 33 35 37 38 40 43 43 37 37 33 30 27 22 21 19 22 20 18 18 16 15 15 15 14 12 12 11 9 8 6 3 2 2 1 1 1 1 2 4 5
13 10 19 27 31 34 34 36 42 41 42 38 35 32 31 26 21 22 21 24 21 21 20 19 18 17 15 14 14 13 11 10 9 6 3 2 1 2 1 1 1 2 3
16 16 22 31 34 36 36 36 37 38 43 41 37 33 31 31 26 21 21 26 26 25 23 21 20 17 15 16 14 14 13 11 12 10 7 5 3 1 3 1 1 3 3
17 19 20 31 34 36 38 39 38 38 42 45 40 36 32 34 32 26 20 23 28 28 26 24 23 21 17 16 16 15 15 14 13 14 11 11 8 6 3 4 1 1 1
9 11 16 28 34 37 40 41 43 43 48 47 44 41 37 36 35 32 28 21 24 29 28 25 23 22 21 18 17 17 15 15 15 14 14 13 12 10 7 4 2 2 2
13 10 13 28 32 35 37 38 37 38 36 40 43 41 41 38 37 35 33 29 20 27 28 28 25 24 24 23 20 19 17 17 15 15 14 16 14 14 10 6 6 6 4
10 6 4 15 14 21 26 32 35 34 35 40 39 41 42 42 40 39 37 33 30 25 24 25 26 26 29 28 25 23 21 20 18 16 16 16 13 15 13 12 10 8 9
10 10 9 8 5 1 18 24 27 29 34 37 37 35 37 39 42 41 40 37 34 32 28 24 27 30 29 31 30 27 24 23 21 19 18 19 17 17 17 14 14 14 12
13 11 9 6 9 1 8 12 26 28 30 28 31 35 37 41 42 42 42 41 39 36 34 30 26 30 31 28 31 30 27 26 25 24 23 22 22 22 21 19 19 18 17
17 13 9 6 11 12 6 10 19 31 33 31 31 34 36 38 41 41 43 44 43 41 38 35 33 29 29 31 31 33 32 30 29 29 28 27 25 25 23 23 21 21 22
16 13 11 13 14 16 15 11 8 19 31 32 34 34 32 34 37 38 41 41 44 45 43 41 38 37 35 32 32 34 35 34 33 33 31 29 28 27 28 26 24 25 25
12 13 12 14 14 14 16 16 13 11 16 33 34 34 35 35 38 40 39 40 41 41 42 42 43 43 41 39 36 35 36 38 39 38 35 33 32 30 29 29 29 30 28
10 11 15 14 15 17 20 20 15 7 9 15 33 34 34 35 33 31 35 38 37 38 41 40 40 40 43 45 43 40 38 41 42 41 39 37 36 35 32 29 29 30 29
13 14 18 21 17 17 23 20 17 9 6 5 3 21 27 27 30 31 33 35 33 35 37 38 39 39 39 40 44 43 41 43 44 44 43 41 39 38 36 32 32 31 31
22 18 21 20 18 18 20 18 16 15 17 13 8 8 6 23 28 30 32 34 34 35 33 35 38 40 40 39 40 39 42 38 38 40 41 44 44 41 37 35 33 33 36
26 23 21 19 18 18 19 12 15 16 18 17 14 11 11 11 16 26 33 33 34 33 33 33 35 38 39 39 39 40 42 38 34 35 34 35 42 42 40 38 38 38 36
22 21 19 20 21 18 13 15 16 20 17 17 17 16 12 15 14 19 29 34 33 32 32 31 32 32 34 37 39 40 43 43 38 35 33 33 35 38 38 37 39 39 38
22 22 20 18 18 16 19 13 16 19 19 17 16 16 17 19 16 16 22 26 31 30 29 28 30 28 28 32 36 40 42 44 46 40 35 32 32 33 34 36 36 33 34
22 19 18 19 19 16 14 15 19 22 24 14 8 15 18 24 19 19 17 27 29 29 29 27 28 26 26 29 29 33 40 42 45 48 43 40 39 37 37 37 35 34 33
28 22 16 15 16 16 17 17 16 20 23 26 20 20 26 24 25 24 18 28 36 38 32 34 32 28 30 32 32 35 39 42 45 43 39 33 34 32 35 38 38 37 33
25 23 22 15 10 13 18 17 19 21 23 20 17 18 16 20 21 22 25 25 37 34 42 42 36 33 38 31 32 35 38 37 35 30 31 30 29 30 30 29 28 33 38

GFSMW_925_spd_072.txt.gz
Wind_Speed
22 26 29 31 29 28 32 33 32 29 28 25 21 17 17 19 19 14 12 10 9 9 10 11 9 8 7 6 3 1 6 3 2 3 4 8 10 11 12 13 12 11 10
14 21 25 27 29 37 37 34 34 31 31 29 25 19 15 14 19 17 15 11 9 11 7 11 9 7 8 8 7 4 4 5 4 1 2 3 4 6 10 12 13 14 13
14 16 22 29 31 30 36 39 37 35 33 31 26 20 15 12 12 16 17 14 10 10 9 10 9 8 8 7 7 5 4 5 8 5 0 1 2 5 4 5 8 11 13
14 15 24 26 30 37 41 41 39 37 35 33 28 26 22 17 17 18 17 15 12 11 10 11 12 11 10 9 6 6 5 5 5 5 4 3 3 1 4 4 4 6 8
15 16 24 31 34 32 38 44 42 39 38 37 32 27 23 21 18 19 19 17 13 12 11 12 10 10 9 10 8 7 6 4 5 3 1 2 3 1 1 2 6 5 6
12 14 28 30 31 32 30 35 41 42 41 39 35 31 26 24 20 19 18 17 15 15 13 12 11 11 10 10 10 10 8 6 5 3 2 3 2 2 1 1 2 4 4
15 12 17 25 27 29 31 33 38 39 42 40 38 34 31 27 25 21 18 18 17 18 17 15 14 13 12 11 9 10 9 9 7 5 3 3 4 3 3 2 2 2 4
14 16 16 24 28 32 34 36 36 37 41 41 39 37 33 30 28 24 21 18 19 19 16 16 16 15 12 11 11 12 12 11 10 9 6 4 3 3 4 4 3 2 3
13 13 15 24 26 29 32 36 37 39 40 44 41 40 36 32 31 26 20 20 18 20 20 17 17 16 15 12 12 12 12 12 11 11 10 9 7 6 5 5 5 2 2
7 10 11 23 26 30 34 37 37 39 45 46 44 41 38 34 33 31 26 22 17 17 21 20 20 19 18 16 13 13 13 12 12 12 12 12 10 9 8 7 5 3 2
9 9 7 18 26 26 27 31 31 33 33 35 36 40 38 36 33 34 32 27 22 17 18 21 20 20 18 18 16 14 14 14 13 12 13 12 12 11 9 8 7 8 6
6 5 6 9 18 22 24 26 26 27 33 37 41 40 40 37 36 36 36 32 28 24 19 18 21 21 21 22 21 20 18 17 16 15 14 14 12 11 10 10 11 11 9
17 14 12 7 9 11 18 24 29 27 28 28 30 32 37 39 37 38 38 36 34 31 27 23 19 20 20 22 22 24 24 21 19 18 17 15 14 14 12 12 13 12 13
16 14 13 16 16 7 0 14 23 28 27 27 31 32 35 38 41 41 40 39 38 36 34 31 28 24 21 22 23 23 25 27 23 21 21 19 18 17 16 16 16 15 16
17 15 13 15 17 17 15 8 17 29 32 33 32 35 39 39 39 38 41 40 40 40 39 37 34 31 28 25 24 25 24 28 28 25 23 23 22 21 20 20 20 18 19
16 15 14 19 19 17 17 18 13 11 27 34 36 36 34 34 38 40 41 40 40 40 40 40 39 38 36 34 29 26 26 27 30 29 27 25 24 24 23 23 23 23 23
14 14 14 18 20 22 22 20 19 12 11 24 31 34 31 33 37 39 38 39 41 40 41 41 40 41 41 40 38 35 31 30 30 31 31 30 29 27 26 24 24 26 26
13 14 18 20 22 23 26 24 21 4 2 7 18 31 37 35 37 34 35 38 37 37 39 39 40 40 43 44 43 41 39 37 36 35 34 34 33 32 29 27 26 27 27
16 17 21 21 22 22 24 23 21 17 10 7 8 11 25 28 28 31 31 33 30 34 37 38 38 39 41 40 42 42 42 41 42 41 40 39 38 37 34 31 31 30 31
20 21 26 22 23 22 21 19 16 12 10 10 10 6 3 11 26 30 32 34 35 33 32 35 38 39 39 40 39 38 40 33 35 38 42 43 42 41 38 35 33 29 35
22 27 24 21 22 25 22 19 15 14 12 11 12 11 5 8 7 13 27 30 31 30 30 33 36 37 37 37 38 37 39 35 32 33 32 36 42 41 38 37 35 36 36
23 20 25 25 25 23 21 20 17 18 18 13 10 10 10 7 10 12 13 19 26 30 31 30 29 31 36 37 36 37 38 40 34 33 32 33 33 34 36 33 33 34 33
25 23 18 26 31 23 21 17 20 20 20 18 14 9 12 12 10 11 17 18 23 30 28 28 28 26 26 32 35 37 38 37 43 37 34 34 32 31 31 33 31 29 30
22 27 26 20 26 30 24 21 17 18 21 21 18 17 13 15 16 14 14 17 18 24 28 27 27 24 25 27 29 32 36 36 38 46 39 39 36 33 33 31 30 31 32
25 24 28 28 24 26 29 25 20 17 18 16 18 18 15 17 19 18 18 15 17 20 27 31 30 24 26 32 31 32 34 34 36 39 38 32 30 29 30 33 34 35 35
27 26 27 30 30 25 27 24 23 20 17 14 14 16 17 24 23 26 26 22 22 20 24 39 34 32 38 28 29 35 36 32 28 27 28 26 26 26 24 26 25 27 34

GFSMW_925_spd_075.txt.gz
Wind_Speed
22 23 23 21 19 18 20 21 20 20 20 18 15 11 11 11 10 9 7 5 2 4 5 6 6 5 4 2 2 3 3 2 2 2 4 5 6 6 7 6 7 7 7
17 22 23 22 23 25 23 21 21 23 23 18 16 10 11 10 11 13 10 7 5 6 5 9 7 6 5 5 4 2 2 2 3 1 2 3 1 3 2 4 5 6 7
19 17 23 26 26 24 25 26 27 23 25 19 14 13 10 7 9 11 11 11 7 5 5 6 7 6 5 4 6 3 3 3 4 2 3 2 3 6 2 2 3 4 5
20 17 24 27 27 29 27 25 27 28 25 25 18 15 14 12 10 11 13 10 10 7 7 7 8 6 5 5 5 5 2 3 3 2 2 2 2 3 4 3 2 2 4
22 22 25 29 32 29 27 28 28 29 28 26 24 20 17 13 10 10 12 11 10 9 8 9 9 9 8 8 6 5 4 3 3 3 1 1 2 2 3 3 4 2 3
22 23 29 28 28 28 26 24 25 28 31 29 26 25 20 16 13 11 11 11 10 8 10 9 9 10 8 9 7 7 6 5 3 3 1 1 2 3 3 2 3 4 3
20 20 22 25 26 26 25 24 24 26 26 30 28 28 23 22 20 16 13 12 12 10 11 12 9 9 10 8 7 8 8 7 4 3 2 1 1 1 2 3 4 3 3
19 20 24 28 27 27 27 27 27 29 27 26 32 33 28 22 21 20 16 14 13 12 12 13 11 11 8 8 8 8 8 7 6 5 5 3 2 1 1 3 5 4 3
17 20 23 27 28 28 28 29 29 29 29 31 29 32 32 29 23 21 21 16 15 12 14 14 13 12 11 10 9 9 9 8 7 7 8 6 4 3 2 2 2 3 4
10 16 21 25 27 28 29 28 29 30 36 33 30 28 27 29 27 25 23 20 18 17 13 15 15 13 13 13 12 9 10 10 9 8 8 8 7 6 5 4 4 3 4
1 8 14 19 22 23 24 26 26 26 27 28 30 29 27 27 25 24 25 24 21 19 16 15 15 15 15 15 15 14 11 11 10 9 9 9 9 8 7 6 6 6 5
17 13 7 6 16 18 19 23 24 24 26 28 27 31 28 27 25 28 27 27 27 23 21 16 14 15 15 16 16 17 14 14 12 11 10 10 9 9 9 8 9 9 8
19 17 20 18 13 4 15 17 19 22 21 22 23 28 30 27 26 27 28 28 28 27 22 21 18 16 16 17 19 18 17 16 15 13 13 12 11 11 10 9 9 10 9
18 15 16 20 21 17 13 3 11 17 19 22 22 24 35 35 32 28 27 26 29 30 27 26 24 22 18 18 17 17 18 17 17 17 15 15 14 14 12 11 11 11 11
18 17 16 19 21 22 20 13 8 6 16 21 23 26 28 34 38 33 31 30 26 28 30 28 27 26 23 21 20 19 18 18 17 18 19 18 18 18 16 13 13 12 13
16 17 19 21 23 22 21 20 16 12 11 18 24 24 23 24 27 30 31 30 30 28 28 29 29 29 29 29 30 26 19 19 19 18 21 22 22 22 20 19 19 19 15
15 15 17 20 22 23 22 23 24 17 11 13 20 24 23 23 25 26 26 27 29 28 27 28 27 31 34 36 37 36 28 23 22 22 21 21 21 23 20 19 20 21 22
14 16 19 21 22 23 23 26 25 22 14 6 6 14 20 24 22 22 24 26 26 26 28 26 28 31 34 39 41 41 38 30 28 27 26 24 25 23 22 19 18 18 19
16 16 18 20 20 21 23 23 23 21 20 16 12 9 9 20 22 23 23 24 22 23 25 25 25 28 35 37 38 37 33 33 33 32 31 30 29 30 32 27 23 21 23
18 20 21 19 19 20 21 21 20 19 18 20 21 18 13 9 12 19 22 22 23 24 23 24 25 27 31 35 36 35 30 30 32 33 35 36 38 35 38 35 26 26 27
20 23 23 19 19 20 20 20 20 18 18 19 20 19 17 12 9 11 15 21 23 23 24 24 24 26 29 32 34 34 33 31 30 31 30 32 35 40 43 43 33 33 30
19 20 21 25 23 20 19 19 19 20 20 21 20 17 18 17 12 12 15 13 17 24 24 24 24 25 26 31 34 34 35 35 31 31 29 30 31 35 35 36 40 39 36
20 20 20 24 26 23 20 20 19 19 19 20 23 21 22 19 16 15 13 12 17 19 19 21 23 26 24 26 30 36 34 35 40 33 30 30 30 31 33 33 32 29 28
24 23 22 23 27 24 24 22 21 18 16 18 19 22 21 19 19 16 16 14 17 18 19 19 24 26 25 26 25 24 32 35 36 43 36 32 29 28 26 25 28 32 27
25 23 22 23 25 27 26 24 22 17 15 17 19 19 18 19 20 18 19 18 17 18 19 17 19 23 27 29 26 24 22 24 27 27 27 27 27 28 26 26 27 25 25
22 21 21 21 20 25 26 23 21 15 13 15 17 18 20 19 19 22 23 21 21 20 23 24 28 31 35 32 28 27 31 30 25 19 25 26 26 26 25 25 27 27 28

GFSMW_925_spd_078.txt.gz
Wind_Speed
22 21 18 17 16 17 17 17 16 15 16 15 13 11 9 8 7 6 5 4 3 3 4 5 5 3 2 3 3 4 3 5 2 3 2 3 3 2 1 1 1 1 1
19 20 20 18 18 20 19 19 18 18 17 15 13 10 9 8 7 7 6 5 4 4 3 5 5 3 3 3 3 1 3 3 1 5 4 2 8 6 3 2 0 0 1
21 19 21 21 20 20 21 20 19 18 18 15 14 9 8 6 8 8 8 6 5 4 4 5 6 4 4 6 4 2 3 5 2 2 8 4 5 2 4 3 2 0 1
18 20 23 23 22 22 21 19 19 18 18 17 15 12 11 9 9 9 8 8 6 4 5 6 6 5 5 4 4 2 1 3 5 2 2 5 5 5 3 7 4 3 2
20 20 24 25 25 23 22 21 20 19 19 19 16 14 13 10 7 7 8 8 8 6 6 6 6 6 6 4 3 3 2 2 3 2 1 2 1 1 6 4 6 7 4
18 20 26 27 26 25 24 22 21 21 20 19 19 17 14 13 9 10 9 9 9 7 8 8 8 7 7 6 6 5 4 4 3 3 3 3 5 5 3 1 4 3 5
19 19 20 26 26 26 24 23 23 23 22 21 20 20 18 16 14 10 12 9 9 9 9 10 9 9 8 6 7 6 6 6 5 5 5 2 1 2 3 4 5 3 5
18 19 22 25 26 24 25 24 24 24 25 25 23 21 19 18 17 15 13 12 11 10 8 11 10 9 9 7 7 7 6 6 7 6 7 5 3 2 2 4 6 1 3
18 18 21 24 25 26 26 26 24 24 24 26 23 23 21 21 17 16 13 14 12 9 10 10 11 11 11 10 9 8 8 7 8 9 8 8 7 5 4 3 3 6 4
6 14 18 21 23 25 26 25 24 24 24 24 24 24 23 21 20 18 17 15 14 13 10 12 12 12 12 11 10 8 9 9 9 10 9 10 10 8 8 7 6 5 6
12 10 7 17 19 20 22 24 24 23 21 22 23 24 24 24 21 20 19 18 17 16 15 14 15 13 13 13 13 12 8 9 10 9 10 11 11 11 10 9 9 9 9
15 15 24 16 12 17 17 20 20 20 20 19 20 24 23 21 21 20 20 18 18 18 16 16 13 14 15 15 15 13 11 11 11 11 11 11 12 12 12 12 12 12 10
18 16 20 21 22 25 1 11 13 15 16 16 18 20 21 23 24 22 20 20 19 20 19 18 16 15 17 17 17 16 15 15 15 13 13 13 12 14 14 12 12 13 12
14 14 16 19 22 23 21 21 10 6 12 14 16 18 21 24 27 26 23 21 21 20 21 22 20 18 17 18 18 18 17 17 16 16 16 14 15 15 15 14 13 13 13
15 15 14 17 19 21 19 17 16 15 9 10 15 17 18 19 21 24 26 25 22 22 22 23 23 22 21 21 20 19 19 19 19 17 16 17 17 18 18 16 15 14 15
14 14 16 18 19 20 19 20 20 17 13 11 14 15 16 17 18 21 25 24 25 24 24 24 25 25 25 26 25 23 21 20 19 19 18 19 20 22 23 22 22 19 16
13 14 14 17 18 18 19 20 22 20 17 16 9 13 16 16 17 19 20 21 24 24 25 26 26 27 28 29 31 30 29 26 23 22 22 21 22 24 22 22 24 26 26
12 13 16 17 17 17 18 17 17 18 19 22 18 18 12 14 17 19 20 21 21 23 25 26 27 28 29 32 33 35 34 31 31 29 27 26 25 23 23 22 22 22 21
12 13 15 15 15 17 18 19 17 17 15 17 18 18 15 17 13 18 20 20 20 21 23 24 25 27 29 31 33 34 29 30 33 34 34 33 31 31 30 29 26 25 26
12 14 15 15 15 17 19 19 17 17 17 19 19 19 17 16 15 15 19 22 22 21 21 23 24 26 28 28 31 32 28 28 30 31 34 38 39 37 35 35 32 30 31
12 14 14 14 14 16 18 18 18 17 17 18 19 19 20 21 18 15 19 20 21 22 22 23 24 25 26 27 30 32 29 30 30 31 31 33 36 40 43 41 37 37 32
12 12 14 15 15 15 17 17 17 18 19 18 19 20 19 18 17 16 17 18 17 14 17 21 23 25 26 29 29 30 32 31 29 31 31 30 32 32 35 38 43 44 39
14 14 14 16 17 16 16 19 20 20 21 20 19 19 19 18 17 17 16 17 16 18 17 16 19 23 26 27 28 30 32 32 35 31 31 30 27 24 29 34 35 34 31
15 16 15 15 16 17 18 19 22 22 21 21 21 20 20 19 17 16 17 15 15 13 18 16 15 21 26 26 24 22 26 30 31 35 35 34 31 28 27 24 26 28 29
13 14 13 12 13 16 18 19 21 21 22 23 20 21 21 18 19 18 16 18 20 17 17 23 19 18 24 25 18 16 18 17 20 24 25 27 30 30 30 28 28 26 24
14 14 14 14 15 17 18 19 19 17 18 18 21 21 20 21 20 21 23 21 22 23 23 26 28 26 34 36 36 36 33 27 25 16 21 28 29 29 27 27 27 28 30

GFSMW_925_spd_084.txt.gz
Wind_Speed
22 22 23 24 23 22 23 16 23 20 16 13 16 13 14 13 12 13 11 7 9 5 6 5 8 5 1 7 4 3 5 3 4 7 9 7 7 7 6 4 15 5 8
17 21 22 26 25 25 22 19 23 24 16 16 13 8 9 18 14 13 9 9 7 5 3 5 9 6 7 3 2 2 10 3 9 7 4 3 8 8 6 5 4 0 4
18 16 18 25 27 27 24 22 23 24 20 17 11 4 5 14 19 10 11 9 8 6 2 5 4 5 5 4 4 1 5 9 3 6 4 1 2 5 8 9 7 7 4
15 19 20 20 27 28 26 24 22 24 22 12 13 11 9 10 16 17 16 9 9 8 6 5 6 11 5 9 5 0 4 3 7 4 3 6 2 0 2 10 2 6 6
19 13 22 25 25 29 28 27 23 24 21 17 10 15 11 2 2 16 13 13 8 7 8 8 6 7 6 8 5 3 1 6 7 12 4 6 6 2 2 2 6 10 13
12 20 26 27 20 31 30 28 26 24 22 21 14 17 9 7 2 11 14 13 12 10 12 10 8 5 6 11 4 3 1 4 4 8 10 14 3 9 5 3 2 10 5
7 12 21 23 24 32 30 29 27 24 22 22 18 14 10 9 5 10 10 15 10 15 14 14 13 8 8 6 7 7 5 5 5 6 9 12 12 10 5 11 10 6 6
8 18 24 18 21 33 32 31 29 26 24 23 21 19 16 10 9 9 10 8 8 7 13 11 11 11 11 9 8 6 6 10 6 10 10 12 13 15 6 6 9 4 8
27 21 15 29 25 30 33 32 32 27 25 24 22 19 18 17 12 13 14 10 10 11 5 7 10 7 9 9 10 9 10 5 7 9 10 14 13 13 10 6 8 5 3
13 13 15 21 30 24 33 32 34 30 28 25 24 22 21 21 20 12 11 11 6 16 5 7 11 10 11 11 10 11 9 11 10 10 12 11 13 15 17 7 11 9 6
11 9 15 28 21 5 13 27 33 30 26 26 25 24 24 22 19 16 13 17 11 10 13 12 16 14 12 13 13 10 6 11 10 12 6 14 12 16 18 13 10 14 11
11 11 13 27 18 26 22 12 6 29 27 27 27 27 23 23 22 21 19 18 17 15 13 11 12 13 14 12 14 13 11 11 11 10 9 11 12 15 15 15 16 15 15
12 13 18 20 16 18 30 22 16 16 3 23 27 24 25 23 23 24 22 20 19 17 16 17 17 18 17 16 14 15 14 14 13 14 12 15 14 14 15 16 14 14 15
14 14 14 16 12 11 25 18 17 21 26 12 16 23 21 20 20 18 21 22 21 19 19 19 19 21 19 19 18 17 17 17 18 15 16 17 18 18 17 18 18 20 20
17 16 16 18 18 20 25 23 21 21 22 22 22 18 13 12 13 16 20 19 20 21 20 20 21 19 21 19 20 20 20 21 22 21 20 21 21 22 19 18 18 21 20
17 15 16 19 19 20 19 19 17 24 22 24 22 18 15 14 3 8 12 15 16 19 19 21 21 21 22 23 24 26 23 22 24 24 22 22 21 19 25 23 24 26 21
14 15 14 18 18 17 14 14 18 19 20 23 18 15 13 12 12 12 5 8 15 18 19 20 22 23 24 27 26 24 26 23 23 25 26 25 22 24 27 29 29 29 29
13 12 15 15 16 16 14 11 9 9 16 19 18 19 16 12 11 9 10 10 8 12 18 22 21 25 25 25 27 30 30 27 28 29 26 26 27 28 22 22 26 29 30
12 12 11 13 13 13 13 12 12 14 15 15 13 14 19 17 14 12 12 14 13 12 13 17 21 22 24 25 28 25 30 29 30 32 30 30 32 29 28 31 32 28 27
10 8 8 10 11 10 11 10 11 13 14 15 15 13 13 12 11 12 12 11 14 15 16 16 19 24 28 24 24 27 28 25 25 28 31 34 38 36 37 37 33 34 36
8 4 6 7 8 9 10 10 10 11 12 13 14 14 12 12 11 11 14 15 13 13 15 17 19 20 24 24 24 25 28 27 24 27 28 28 31 36 39 44 44 41 36
5 5 5 6 6 9 10 9 11 13 14 14 14 15 16 13 13 13 14 16 16 15 15 14 15 14 15 17 19 24 27 27 28 29 28 28 26 23 28 41 43 42 44
6 7 6 7 11 11 10 10 12 13 14 15 18 17 15 17 16 14 19 18 16 15 13 11 9 12 11 15 12 5 11 5 10 12 29 33 32 34 36 32 30 34 45
7 5 5 6 7 10 10 11 13 16 17 18 17 18 22 18 19 18 17 13 15 15 14 13 14 16 17 15 15 18 21 21 20 19 21 20 22 36 38 38 39 32 29
5 3 3 3 5 8 10 11 13 15 16 18 20 20 18 22 23 18 16 15 16 17 18 15 17 18 19 18 22 25 26 21 18 22 23 25 24 19 19 22 25 30 31
4 4 2 4 5 6 7 10 12 13 15 16 17 19 22 22 21 22 24 23 24 22 21 24 25 26 25 23 20 21 23 22 19 20 22 25 27 27 28 21 20 28 32

GFSMW_925_spd_087.txt.gz
Wind_Speed
17 26 29 31 34 26 27 29 29 19 19 16 18 16 15 16 15 15 13 8 11 7 7 6 8 6 9 3 0 0 4 5 3 4 4 3 6 10 16 13 8 11 9
15 20 29 28 31 27 23 23 28 25 21 17 19 19 14 19 18 18 14 10 9 9 9 8 6 3 8 2 3 2 6 4 3 3 3 3 2 7 9 16 13 10 11
18 11 23 28 32 31 26 25 29 26 23 20 13 9 11 18 19 18 14 11 9 11 9 8 7 6 6 5 2 2 4 6 4 3 3 2 2 2 3 9 9 7 6
16 12 18 25 31 34 31 26 28 26 22 18 13 11 16 24 18 19 16 15 10 8 8 6 7 9 9 6 3 2 5 5 9 6 5 2 2 2 3 6 8 7 8
8 17 15 27 32 37 36 30 29 26 26 19 12 14 11 12 8 16 17 15 12 10 9 10 8 7 4 8 5 1 3 5 6 12 12 6 4 2 2 2 3 10 11
6 7 17 22 31 32 32 32 29 27 28 21 14 12 9 9 6 18 19 17 12 10 10 11 11 7 8 8 5 2 1 2 3 6 7 10 6 11 4 1 3 7 15
1 6 9 9 29 29 30 32 30 29 28 23 19 14 8 8 9 14 14 15 14 13 11 10 10 11 11 13 8 6 6 4 6 7 7 7 8 10 15 4 5 5 2
7 8 13 17 15 28 31 31 32 31 29 27 24 19 14 12 10 11 13 16 14 14 12 13 11 11 9 7 7 6 5 6 9 9 10 11 10 12 14 12 4 3 6
15 13 24 12 13 29 32 34 35 33 31 29 28 25 21 17 16 14 12 14 13 11 10 15 12 13 12 10 9 10 8 7 7 9 10 12 13 11 12 18 9 2 1
18 18 24 2 4 9 32 36 38 36 33 31 27 25 23 21 19 13 12 16 14 15 9 15 14 14 13 13 10 8 7 9 11 10 10 12 13 12 12 13 15 15 5
5 7 13 16 12 10 7 23 27 34 35 33 28 25 24 20 19 18 12 14 11 17 13 15 16 15 15 14 13 11 11 8 14 13 14 12 10 12 13 14 13 13 12
9 7 11 12 14 11 19 16 10 2 12 34 31 29 25 24 22 21 20 15 16 15 13 9 13 19 16 15 17 14 13 13 12 11 11 14 11 10 13 12 14 13 12
9 10 13 12 18 18 15 15 15 16 8 11 26 24 26 26 26 24 23 24 19 18 17 17 15 14 16 17 16 16 15 14 15 14 13 14 13 15 14 15 14 15 17
10 10 12 14 14 18 16 18 15 12 15 8 11 11 8 12 24 25 24 23 22 20 19 20 19 19 20 20 19 17 17 16 18 18 15 17 17 16 16 18 17 17 17
10 9 10 12 15 18 15 16 19 23 19 10 6 2 1 10 15 23 18 21 20 21 20 19 20 18 22 22 20 20 20 21 21 21 21 20 20 22 20 20 20 20 18
11 11 12 16 16 14 13 14 18 21 18 17 12 10 7 5 3 4 3 9 16 18 18 20 21 21 22 19 21 21 24 25 24 25 23 22 22 23 20 22 22 23 22
8 9 11 16 19 17 18 18 19 18 24 21 15 7 9 6 4 8 4 1 3 8 11 14 17 22 24 22 24 25 21 26 28 26 25 23 24 24 22 24 26 29 30
8 8 16 18 18 18 14 14 19 23 27 18 15 17 16 11 9 8 8 8 5 4 6 11 13 15 19 21 24 23 25 26 25 24 24 25 26 25 27 27 28 23 25
13 15 19 18 21 19 21 24 24 23 22 19 18 16 16 15 15 14 11 10 10 9 9 7 10 14 16 17 20 23 25 26 27 29 29 28 29 28 28 27 29 32 34
12 14 19 18 18 18 17 21 21 21 20 19 18 17 16 14 15 12 15 15 14 12 13 13 10 13 15 17 18 19 22 25 27 28 28 29 31 31 32 35 35 35 35
9 12 18 18 18 16 17 20 21 21 17 15 15 15 14 15 15 15 14 16 16 15 16 14 13 11 10 9 11 12 15 19 24 25 24 22 26 27 27 32 37 38 36
15 15 19 23 20 17 16 19 20 16 15 14 14 15 15 15 16 16 16 19 19 19 20 17 13 6 12 15 15 14 12 11 13 18 22 27 30 28 25 24 25 23 23
18 15 18 20 19 18 17 17 16 16 15 14 15 16 16 15 20 19 18 19 18 16 15 16 14 12 15 17 16 16 16 17 17 15 16 17 22 28 36 38 35 29 23
14 12 13 14 15 14 13 14 16 15 15 15 16 19 19 19 19 20 21 21 23 22 22 20 20 21 23 22 21 19 22 22 19 21 22 22 23 23 25 27 30 37 40
12 9 8 12 12 9 10 11 13 15 15 15 16 18 19 20 20 21 20 21 22 23 26 26 24 25 26 26 25 22 21 21 24 26 27 28 28 29 27 26 24 23 27
9 9 9 10 8 10 10 10 10 12 13 15 16 18 19 19 20 22 26 22 20 20 20 19 25 27 27 24 24 26 23 23 27 27 27 31 31 30 29 27 26 26 26